ROMMA est une association bénévole à but non lucratif. Votre soutien est indispensable : ADHERER à ROMMA ou FAIRE un DON

Crêts du Salève - (74, Haute-Savoie)

Salève (1270 m)   Longitude: 6° 10' 28'' E   Latitude: 46° 7' 42'' N Station romma n°73
 

Détail journalier du     <<     >>

Température Precipitation Humidité Vent Dir Rafale Dir. rafale Ensol.
Heure (°C) (mm) (%) (km/h) (km/h) (min)
01:00 13.904410SO15SO0
02:00 13.405011SO15SO0
03:00 13.504015SO21SO0
04:00 13.403713SO19SO0
05:00 13.803910SSO15SO0
06:00 13.903913SSO18SSO0
07:00 14.204011SSO16SSO0
08:00 13.90448SSO19SSO10
09:00 14.50457SSO21SSO60
10:00 15.104713SSO24SSO60
11:00 16.40514SSO21S60
12:00 15.804516SSO37SO60
13:00 15.405627SSO40SO60
14:00 15.705331SSO52SSO60
15:00 15.805635SO64SSO60
16:00 15.606044SO76SSO60
17:00 15.606338SO55SSO50
18:00 14.607031SO44SO0
19:00 13.507920SO39O0
20:00 10.12.69736OSO61OSO0
21:00 10.219746S81SSO0
22:00 9.429744S76S0
23:00 9.31.49642S82S0
minuit 10.209324SSO47SSO0

Graphique du 01-10-2019

 

Serveur OMMA